#timestamp,LO_Frequency,Hit 
1499209215.8,286047019.8,N
1499209235.6,286047019.6,N
1499209255.5,286047021.8,N
1499209275.3,286047023.0,N
1499209295.1,286047024.6,N
1499209315.9,286047023.0,N
1499209335.7,286047021.0,N
1499209355.5,286047022.1,N
1499209375.4,286047025.6,N
1499209395.2,286047024.1,N
1499209415.0,286047026.3,N
1499209415.9,286047026.3,N
1499209435.8,286047026.7,N
1499209455.6,286047025.0,N
1499209475.4,286047024.2,N
1499209495.2,286047025.2,N
1499209515.1,286047022.4,N
1499209516.0,286047022.4,N
1499209535.8,286047023.1,N
1499209555.6,286047021.9,N
1499209575.5,286047021.1,N
1499209595.3,286047021.5,N
1499209615.1,286047017.4,N
1499209635.9,286047018.8,N
1499209655.7,286047016.5,N
1499209675.5,286047018.2,N
1499209695.4,286047016.2,N
1499209715.2,286047017.4,N
1499209735.0,286047018.1,N
1499209735.9,286047018.1,N
1499209755.8,286047016.1,N
1499209775.6,286047016.8,N
1499209795.4,286047016.5,N
1499209815.3,286047018.4,N
1499209835.1,286047016.3,N
1499209836.0,286047016.3,N
1499209855.8,286047016.1,N
1499209875.7,286047016.4,N
1499209895.5,286047014.2,N
1499209915.3,286047015.2,N
1499209935.1,286047017.2,N
1499209955.9,286047017.1,N
1499209975.7,286047016.3,N
1499209995.5,286047016.0,N
1499210015.4,286047018.1,N
1499210035.2,286047017.5,N
1499210055.0,286047017.7,N
1499210055.9,286047017.7,N
1499210075.8,286047017.7,N
1499210095.6,286047021.5,N
1499210115.4,286047020.6,N
1499210135.3,286047019.3,N
1499210155.1,286047020.5,N
1499210156.0,286047020.5,N
1499210175.8,286047023.0,N
1499210195.7,286047021.7,N
1499210215.5,286047021.5,N
1499210235.3,286047020.9,N
1499210255.1,286047019.0,N
1499210275.9,286047020.0,N
1499210295.7,286047019.2,N
1499210315.5,286047023.4,N
1499210335.4,286047021.0,N
1499210355.2,286047021.7,N
1499210375.0,286047022.0,N
1499210375.9,286047022.0,N
1499210395.8,286047020.9,N
1499210415.6,286047020.5,N
1499210435.4,286047019.0,N
1499210455.3,286047021.8,N
1499210475.1,286047020.9,N
1499210495.8,286047021.2,N
1499210515.7,286047022.7,N
1499210535.5,286047022.2,N
1499210555.3,286047022.9,N
1499210575.2,286047022.1,N
1499210595.9,286047022.9,N
1499210615.7,286047025.1,N
1499210635.6,286047026.8,N
1499210655.4,286047025.0,N
1499210675.2,286047024.6,N
1499210695.0,286047023.8,N
1499210695.9,286047023.8,N
1499210715.8,286047022.1,N
1499210735.6,286047024.0,N
1499210755.4,286047028.2,N
1499210775.3,286047025.9,N
1499210795.1,286047027.5,N
1499210796.0,286047027.5,N
1499210815.8,286047026.2,N
1499210835.7,286047025.5,N
1499210855.5,286047028.0,N
1499210875.3,286047025.3,N
1499210895.2,286047025.5,N
1499210915.9,286047026.3,N
1499210935.7,286047025.5,N
1499210955.6,286047025.3,N
1499210975.4,286047028.2,N
1499210995.2,286047025.3,N
1499211015.0,286047025.5,N
1499211015.9,286047025.5,N
1499211035.8,286047026.3,N
1499211055.6,286047028.1,N
1499211075.4,286047029.4,N
1499211095.3,286047026.9,N
1499211115.1,286047029.5,N
1499211135.8,286047027.3,N
1499211155.7,286047029.4,N
1499211175.5,286047025.4,N
1499211195.3,286047025.9,N
1499211215.2,286047027.8,N
1499211235.9,286047028.1,N
1499211255.7,286047028.3,N
1499211275.6,286047027.3,N
1499211295.4,286047029.2,N
1499211315.2,286047028.7,N
1499211335.0,286047029.3,N
1499211336.0,286047029.3,N
1499211355.8,286047031.5,N
1499211375.6,286047030.6,N
1499211395.4,286047032.8,N
1499211415.3,286047033.2,N
1499211435.1,286047029.0,N
1499211455.8,286047030.6,N
1499211475.7,286047033.1,N
1499211495.5,286047032.7,N
1499211515.3,286047030.2,N
1499211535.2,286047030.3,N
1499211555.9,286047034.1,N
1499211575.7,286047032.3,N
1499211595.6,286047032.0,N
1499211615.4,286047034.0,N
1499211635.2,286047033.7,N
1499211655.1,286047033.9,N
1499211656.0,286047033.9,N
1499211675.8,286047032.0,N
1499211695.6,286047032.9,N
1499211715.5,286047032.9,N
1499211735.3,286047034.3,N
1499211755.1,286047034.0,N
1499211775.8,286047035.2,N
1499211795.7,286047035.7,N
1499211815.5,286047035.6,N
1499211835.3,286047033.5,N
1499211855.2,286047036.1,N
1499211875.0,286047035.7,N
1499211875.9,286047035.7,N
1499211895.7,286047035.9,N
1499211915.6,286047035.4,N
1499211935.4,286047037.9,N
1499211955.2,286047035.5,N
1499211975.1,286047035.6,N
1499211976.0,286047035.6,N
1499211995.8,286047036.4,N
1499212015.6,286047035.3,N
1499212035.5,286047037.1,N
1499212055.3,286047036.9,N
1499212075.1,286047041.2,N
1499212095.9,286047039.7,N
1499212115.7,286047038.4,N
1499212135.5,286047038.6,N
1499212155.4,286047040.4,N
1499212175.2,286047040.3,N
1499212195.0,286047038.7,N
1499212195.9,286047038.7,N
1499212215.7,286047041.2,N
1499212235.6,286047038.7,N
1499212255.4,286047038.2,N
1499212275.2,286047039.1,N
1499212295.1,286047039.1,N
1499212296.0,286047039.1,N
1499212315.8,286047036.5,N
1499212335.6,286047038.3,N
1499212355.5,286047041.1,N
1499212375.3,286047038.5,N
1499212395.1,286047039.0,N
1499212415.9,286047038.3,N
1499212435.7,286047039.1,N
1499212455.5,286047041.1,N
1499212475.4,286047041.1,N
1499212495.2,286047041.1,N
1499212515.0,286047040.5,N
1499212515.9,286047040.5,N
1499212535.8,286047040.0,N
1499212555.6,286047039.7,N
1499212575.4,286047042.0,N
1499212595.3,286047044.4,N
1499212615.1,286047044.1,N
1499212616.0,286047044.1,N
1499212635.8,286047043.6,N
1499212655.6,286047046.0,N
1499212675.5,286047044.9,N
1499212695.3,286047043.3,N
1499212715.1,286047041.8,N
1499212735.9,286047044.2,N
1499212755.7,286047045.6,N
1499212775.5,286047045.2,N
1499212795.4,286047044.5,N
